sat.trackr.live / text

‹ back to catalog

STARLINK-4125

NORAD 53244 · 2022-086C

PAYLOAD ACTIVE UNKNOWN

§ Identity

Operator
Country
US
Launch date
2022-07-24
Launch site
AFETR
Launch vehicle
Mass (kg)
RCS (m²)

Purposes: comms

External: N2YO · Heavens-Above · Gunter

§ Orbital elements

Epoch: 2026-05-25T05:00:26.233344Z

Period
95.44 min
Inclination
53.2124°
Eccentricity
0.0001849
Mean motion
15.08841101 rev/d
Perigee alt
538.5 km
Apogee alt
541.0 km
Semi-major
6,917.9 km
B*
2.8185e-5
RAAN
220.6923°
Arg perigee
82.8820°
Mean anomaly
277.2382°
Rev number
21,279

§ Raw data

STARLINK-41251 53244U 22086C   26145.20863696  .00000160  00000+0  28185-4 0  99982 53244  53.2124 220.6923 0001849  82.8820 277.2382 15.08841101212792

JSON: /api/v1/satellites/53244 · /tle

For live sub-satellite position, see the globe view (requires WebGL).

§ Visibility from observer

Set your observer location to see the next 7 days of passes ≥ 10°. The values pass through the URL so the page stays shareable.

No JS? Fill the form by hand. The geolocation button needs JavaScript.